WetterOnline ( http://www.wetteronline.de )

Wetter aktuell Altmark

Aktuelles Wetter: Gardelegen (48m)

6-stündlich | Neueste Meldungen
Ortszeit Temperatur Wetter
Do, 16.08. 20:00 27.9° C leicht bewölkt
Do, 16.08. 14:00 27.7° C fast wolkenlos
Do, 16.08. 8:00 15.0° C fast wolkenlos
Do, 16.08. 2:00 12.3° C wolkenlos
Mi, 15.08. 20:00 22.6° C wolkenlos
Mi, 15.08. 14:00 22.6° C wolkig
Mi, 15.08. 8:00 15.3° C leicht bewölkt
Mi, 15.08. 2:00 15.7° C fast wolkenlos
Ortszeit Temperatur Wetter
Do, 16.08. 23:00 17.8° C wolkenlos
Do, 16.08. 22:50 17.8° C wolkenlos
Do, 16.08. 22:40 19.4° C wolkenlos
Do, 16.08. 22:30 18.6° C wolkenlos
Do, 16.08. 22:20 18.6° C wolkenlos
Do, 16.08. 22:10 19.0° C fast wolkenlos
Do, 16.08. 22:00 20.4° C leicht bewölkt
Do, 16.08. 21:30 21.6° C fast wolkenlos
Do, 16.08. 21:00 22.5° C leicht bewölkt
Do, 16.08. 20:30 25.2° C leicht bewölkt
Do, 16.08. 20:00 27.9° C leicht bewölkt
Ortszeit Relative Feuchte Sichtweite
Do, 16.08. 20:00 37% 65 km
Do, 16.08. 14:00 36% 29 km
Do, 16.08. 8:00 88% 20 km
Do, 16.08. 2:00 97% 7 km
Mi, 15.08. 20:00 57% 50 km
Mi, 15.08. 14:00 56% 30 km
Mi, 15.08. 8:00 89% 35 km
Mi, 15.08. 2:00 90% 50 km
Ortszeit Relative Feuchte Sichtweite
Do, 16.08. 23:00 81% 35 km
Do, 16.08. 22:50 81% -
Do, 16.08. 22:40 71% -
Do, 16.08. 22:30 80% 35 km
Do, 16.08. 22:20 80% -
Do, 16.08. 22:10 80% -
Do, 16.08. 22:00 75% 40 km
Do, 16.08. 21:30 67% 60 km
Do, 16.08. 21:00 65% 60 km
Do, 16.08. 20:30 50% 70 km
Do, 16.08. 20:00 37% 65 km
Ortszeit Niederschlagsmenge Niederschlagsart
Do, 16.08. 20:00 0.0 l/m2 in 12 Std. -
Do, 16.08. 14:00 0.1 l/m2 in 6 Std. Sprühregen
Do, 16.08. 8:00 0.0 l/m2 in 12 Std. -
Do, 16.08. 2:00 0.0 l/m2 in 6 Std. -
Mi, 15.08. 20:00 0.0 l/m2 in 12 Std. -
Mi, 15.08. 14:00 0.0 l/m2 in 6 Std. -
Mi, 15.08. 8:00 0.3 l/m2 in 12 Std. Niederschlag
Mi, 15.08. 2:00 0.3 l/m2 in 6 Std. Regen
Ortszeit Niederschlagsmenge Niederschlagsart
Do, 16.08. 23:00 0.0 l/m2 in 1 Std. -
Do, 16.08. 22:50 keine Meldung -
Do, 16.08. 22:40 keine Meldung -
Do, 16.08. 22:30 0.0 l/m2 in 1 Std. -
Do, 16.08. 22:20 keine Meldung -
Do, 16.08. 22:10 keine Meldung -
Do, 16.08. 22:00 0.0 l/m2 in 1 Std. -
Do, 16.08. 21:30 0.0 l/m2 in 1 Std. -
Do, 16.08. 21:00 0.0 l/m2 in 1 Std. -
Do, 16.08. 20:30 0.0 l/m2 in 1 Std. -
Do, 16.08. 20:00 0.0 l/m2 in 1 Std. -
Ortszeit Stärke Spitze Richtung
km/h Bft. km/h Grad Sektor
Do, 16.08. 20:00 4 1 32 120° SO
Do, 16.08. 14:00 18 3 36 190° S
Do, 16.08. 8:00 2 1 4 250° W
Do, 16.08. 2:00 2 1 6 270° W
Mi, 15.08. 20:00 4 1 25 270° W
Mi, 15.08. 14:00 11 2 29 280° W
Mi, 15.08. 8:00 4 1 18 210° SW
Mi, 15.08. 2:00 9 2 39 270° W
Ortszeit Stärke Spitze Richtung
km/h Bft. km/h Grad Sektor
Do, 16.08. 23:00 0 0 11 - -
Do, 16.08. 22:50 0 0 - 340° N
Do, 16.08. 22:40 4 1 - 110° O
Do, 16.08. 22:30 0 0 11 - -
Do, 16.08. 22:20 2 1 - 220° SW
Do, 16.08. 22:10 4 1 - 20° N
Do, 16.08. 22:00 4 1 11 100° O
Do, 16.08. 21:30 6 1 9 310° NW
Do, 16.08. 21:00 0 0 7 - -
Do, 16.08. 20:30 2 1 6 110° O
Do, 16.08. 20:00 4 1 14 120° SO
Ortszeit Untergrenze Bedeckung Gattung
total tief tief mittel hoch
Do, 16.08. 20:00 9000 m 3/8 0/8 - - -
Do, 16.08. 14:00 9000 m 1/8 0/8 - - -
Do, 16.08. 8:00 9000 m 1/8 0/8 - - -
Do, 16.08. 2:00 - 0/8 0/8 - - -
Mi, 15.08. 20:00 - 0/8 0/8 - - -
Mi, 15.08. 14:00 1500 m 6/8 6/8 - - -
Mi, 15.08. 8:00 3900 m 2/8 2/8 - - -
Mi, 15.08. 2:00 9000 m 1/8 0/8 - - -
Ortszeit Bedeckungsgrad in Achtel und Wolkenuntergrenze
Do, 16.08. 23:00 keine Wolken
Do, 16.08. 22:50 keine Wolken
Do, 16.08. 22:40 keine Wolken
Do, 16.08. 22:30 keine Wolken
Do, 16.08. 22:20 keine Wolken
Do, 16.08. 22:10 1(9000m)
Do, 16.08. 22:00 4(9000m)
Do, 16.08. 21:30 1(9000m)
Do, 16.08. 21:00 4(10500m)
Do, 16.08. 20:30 3(9000m)
Do, 16.08. 20:00 3(9000m)
Ortszeit Luftdruck NN (hPa) Tendenz (hPa in 3 Std.)
Do, 16.08. 20:00 1013 - 0,9
Do, 16.08. 14:00 1016 - 1,7
Do, 16.08. 8:00 1019 - 0,3
Do, 16.08. 2:00 1020 - 0,1
Mi, 15.08. 20:00 1019 - 0,2
Mi, 15.08. 14:00 1019 - 0,1
Mi, 15.08. 8:00 1018 + 1,1
Mi, 15.08. 2:00 1016 + 1,1
Ortszeit Luftdruck NN (hPa) Tendenz (hPa in 3 Std.)
Do, 16.08. 23:00 1014 + 0,5
Do, 16.08. 22:50 1014 keine Meldung
Do, 16.08. 22:40 1014 keine Meldung
Do, 16.08. 22:30 1014 + 0,5
Do, 16.08. 22:20 1014 keine Meldung
Do, 16.08. 22:10 1014 keine Meldung
Do, 16.08. 22:00 1014 + 0,5
Do, 16.08. 21:30 1014 + 0,2
Do, 16.08. 21:00 1014 - 0,2
Do, 16.08. 20:30 1014 - 0,6
Do, 16.08. 20:00 1013 - 0,9
Ortszeit Schneehöhe (cm)
Do, 16.08. 20:00 -
Do, 16.08. 14:00 -
Do, 16.08. 8:00 -
Do, 16.08. 2:00 -
Mi, 15.08. 20:00 -
Mi, 15.08. 14:00 -
Mi, 15.08. 8:00 -
Mi, 15.08. 2:00 -
Ortszeit Schneehöhe (cm)
Do, 16.08. 23:00 -
Do, 16.08. 22:50 -
Do, 16.08. 22:40 -
Do, 16.08. 22:30 -
Do, 16.08. 22:20 -
Do, 16.08. 22:10 -
Do, 16.08. 22:00 -
Do, 16.08. 21:30 -
Do, 16.08. 21:00 -
Do, 16.08. 20:30 -
Do, 16.08. 20:00 -
Link zu dieser Seite / Seite empfehlen

Das Wetter in ...